Location: 32930 Toén, Ourense, España
(42.3348°N, 7.8903°W)
Time: 15:56:29
(UTC+01:00)

ISS - Visible Passes

Search period start: 27 November 2021 00:00
Search period end: 07 December 2021 00:00
Orbit: 417 x 423 km, 51.6° (Epoch: 27 November)

Date Brightness Start Highest point End Pass type
(mag) Time Alt. Az. Time Alt. Az. Time Alt. Az.
27 Nov -2.0 18:36:31 10° WNW 18:39:18 23° NNW 18:42:06 10° NE visible
27 Nov -1.0 20:14:40 10° NW 20:15:30 13° NNW 20:15:30 13° NNW visible
28 Nov -1.7 19:27:18 10° NW 19:29:37 17° N 19:30:12 16° NNE visible
29 Nov -1.7 18:39:49 10° NW 18:42:12 18° N 18:44:35 10° NE visible
29 Nov -1.0 20:17:15 10° NW 20:17:52 13° NNW 20:17:52 13° NNW visible
30 Nov -1.9 19:30:04 10° NW 19:32:32 18° N 19:32:35 18° N visible
01 Dec -1.8 18:42:45 10° NW 18:45:06 17° N 18:47:20 10° NE visible
01 Dec -1.1 20:19:31 10° NW 20:20:19 15° NW 20:20:19 15° NW visible
02 Dec -2.4 19:32:22 10° NW 19:35:07 26° NNE 19:35:07 26° NNE visible
03 Dec -2.2 18:45:11 10° NW 18:47:53 21° NNE 18:50:00 13° ENE visible
03 Dec -1.4 20:21:44 10° NW 20:23:00 21° NW 20:23:00 21° NW visible
04 Dec -3.5 19:34:31 10° NW 19:37:50 49° NNE 19:38:00 49° NE visible
05 Dec -3.0 18:47:19 10° NW 18:50:28 34° NNE 18:53:10 13° E visible
05 Dec -1.7 20:24:09 10° WNW 20:26:12 28° W 20:26:12 28° W visible
06 Dec -3.4 19:36:44 10° WNW 19:40:05 63° SW 19:41:36 29° SE visible
